星链-1675 (STARLINK-1675 )

导读

STARLINK-1675是美国SpaceX于2020年10月6日发射的Starlink V1.0低轨通信卫星,属于星链全球互联网项目。该卫星运行在近地点355.133km、远地点357.473km轨道,倾角约43度,周期约91.67分钟。它为全球尤其是偏远地区提供高速低延迟互联网服务,助力缩小数字鸿沟,也可支持军事、航空等领域通信。

基本信息
目录编号:
46575
目录名称:
STARLINK-1675
国际标识:
2020-070AV
轨道中心:
EARTH
卫星名称:
星链-1675
卫星全名:
星链-1675 (STARLINK-1675 )
卫星状态:
已陨落 最后检测时间 2025-11-27
发射日期:
2020-10-06 UTC
国别 :
美国 (US)
星等 :
--
轨道信息
数据来源 国际轨道数据
星历时间: 2025-11-27T07:37:09+0800
轨道信息已过期203天
半长轴: 6540.016km
偏心率: 0.000575
轨道倾角: 53.020°
近地点辐角 273.116°
升交点赤经 148.845°
平近点角 86.923°
近地点: 158.12km
远地点: 165.642km
周期: 87.726分钟
每日圈数: 16.414763
详细信息
固有亮度:
5
最大亮度:
2.5
卫星平台:
Starlink V1.0
覆盖范围:
全球
运营商:
太空探索技术公司
运营商所在国:
美国
制造商(研发单位):
太空探索技术公司
制造商所在国:
美国
使用方式:
暂无
卫星简介
星链(Starlink)计划是由太空探索技术公司(SpaceX)提出的一个巨型低轨卫星互联网星座项目,计划在2019年至2024年间在太空搭建由约1.2万颗卫星组成的“星链”网络,其中1584颗将部署在地球上空550千米处的近地轨道,并从2020年开始工作。该卫星仍在工作。